St. Johns, AZ

8:33 PM MST on October 23, 2019 (GMT -0700)
Saint Johns Industrial

Weather History for KSJN - August, 2019

Change the Weather History Date:

Monday, August 26, 2019

  Actual Average (WUND) Record (WUND)
Temperature  
Mean Temperature 73 °F -  
Max Temperature 91 °F - - (-1)
Min Temperature 55 °F - - (-1)
Cooling Degree Days 8    
Growing Degree Days 23 (Base 50)    
Moisture  
Dew Point 43 °F    
Average Humidity 29    
Maximum Humidity 56    
Minimum Humidity 10    
Precipitation  
Precipitation 0.00 in - - ()
Sea Level Pressure  
Sea Level Pressure 29.80 in    
Wind  
Wind Speed 6 mph (West)    
Max Wind Speed 14 mph    
Max Gust Speed 20 mph    
Visibility 10 miles    
Events      
Averages and records for this station are not official NWS values.
T = Trace of Precipitation, MM = Missing Value Source: NWS Daily Summary

Daily Weather History Graph

Daily Weather History Graph

Search for Another Location

Airport or City:

Astronomy

Aug. 26, 2019 Rise Set
Actual Time 5:46 AM MST 6:51 PM MST
Civil Twilight 5:20 AM MST 7:17 PM MST
Nautical Twilight 4:49 AM MST 7:48 PM MST
Astronomical Twilight 4:17 AM MST 8:20 PM MST
Moon 1:23 AM MST (8/26) 4:09 PM MST (8/26)
Length of Visible Light 13h 57m
Length of Day
13h 05m
Waning Crescent, 18% of the Moon is Illuminated
Aug 26
Waning Crescent
Aug 30
New
Sep 5
First Quarter
Sep 13
Full
Sep 21
Last Quarter

Hourly Weather History & Observations

Time (MST) Temp. Dew Point Humidity Pressure Visibility Wind Dir Wind Speed Gust Speed Precip Events Conditions
12:54 AM 72.0 °F 54.0 °F 53% 29.80 in 10.0 mi Calm Calm - N/A   Clear
1:54 AM 72.0 °F 54.0 °F 53% 29.80 in 10.0 mi WSW 10.4 mph - N/A   Clear
2:54 AM 73.0 °F 51.1 °F 46% 29.79 in 10.0 mi WSW 6.9 mph - N/A   Clear
3:54 AM 68.0 °F 52.0 °F 56% 29.81 in 10.0 mi South 5.8 mph - N/A   Clear
4:54 AM 66.0 °F 50.0 °F 56% 29.82 in 10.0 mi SSW 6.9 mph - N/A   Clear
5:54 AM 66.9 °F 50.0 °F 54% 29.83 in 10.0 mi South 3.5 mph - N/A   Clear
6:54 AM 72.0 °F 50.0 °F 46% 29.85 in 10.0 mi SW 4.6 mph - N/A   Clear
7:54 AM 78.1 °F 46.9 °F 33% 29.85 in 10.0 mi SW 5.8 mph - N/A   Clear
8:54 AM 80.1 °F 46.0 °F 30% 29.85 in 10.0 mi WNW 4.6 mph - N/A   Clear
9:54 AM 84.0 °F 43.0 °F 24% 29.84 in 10.0 mi NW 6.9 mph - N/A   Clear
10:54 AM 87.1 °F 42.1 °F 21% 29.83 in 10.0 mi Variable 4.6 mph - N/A   Clear
11:54 AM 91.0 °F 39.0 °F 16% 29.81 in 10.0 mi West 9.2 mph 19.6 mph N/A   Clear
12:54 PM 91.0 °F 37.9 °F 15% 29.78 in 10.0 mi Variable 5.8 mph 17.3 mph N/A   Clear
1:54 PM 93.9 °F 37.0 °F 14% 29.76 in 10.0 mi Variable 6.9 mph - N/A   Clear
2:54 PM 93.9 °F 36.0 °F 13% 29.73 in 10.0 mi WNW 10.4 mph 16.1 mph N/A   Clear
3:54 PM 95.0 °F 37.0 °F 13% 29.72 in 10.0 mi West 8.1 mph - N/A   Clear
4:54 PM 93.0 °F 36.0 °F 13% 29.72 in 10.0 mi NW 13.8 mph - N/A   Clear
5:54 PM 91.9 °F 35.1 °F 13% 29.72 in 10.0 mi NNW 10.4 mph - N/A   Clear
6:54 PM 87.1 °F 34.0 °F 15% 29.73 in 10.0 mi NNW 6.9 mph - N/A   Clear
7:54 PM 81.0 °F 32.0 °F 17% 29.75 in 10.0 mi NW 5.8 mph - N/A   Clear
8:54 PM 77.0 °F 35.1 °F 22% 29.77 in 10.0 mi WSW 3.5 mph - N/A   Clear
9:54 PM 79.0 °F 46.9 °F 32% 29.76 in 10.0 mi WSW 12.7 mph - N/A   Clear
10:54 PM 77.0 °F 46.9 °F 34% 29.76 in 10.0 mi WSW 12.7 mph - N/A   Clear
11:54 PM 75.9 °F 46.9 °F 36% 29.76 in 10.0 mi WSW 11.5 mph - N/A   Clear